SCP
0 0 0 0 0 0 0 0 0 0 0 0 0 0 0 0 0 0 0 0 0 0 0 0 0 0 0 0 0 0 0 0 0 0 0 0 0 0 0 0 0 0 0
0 0 0 0 0 0 0 0 0 0 0 0 0 0 0 0 0 0 0 0 0 0 0 0 0 0 0 0 0 0 0 0 0 0 0 0 0 0 0 0 0 0 0
0 0 0 0 0 0 0 0 0 0 0 0 0 0 0 0 0 0 0 0 0 0 0 0 0 0 0 0 0 0 0 0 0 0 0 0 0 0 0 0 0 0 0
0 0 0 0 0 0 0 0 0 0 0 0 0 0 0 0 0 0 0 0 0 0 0 0 0 0 0 0 0 0 0 0 0 0 0 0 0 0 0 0 0 0 0
0 0 0 0 0 0 0 0 0 0 0 0 0 0 0 0 0 0 0 0 0 0 0 0 0 0 0 0 0 0 0 0 0 0 0 0 0 0 0 0 0 0 0
0 0 0 0 0 0 0 0 0 0 0 0 0 0 0 0 0 0 0 0 0 0 0 0 0 0 0 0 0 0 0 0 0 0 0 0 0 0 0 0 0 0 0
0 0 0 0 0 0 0 0 0 0 0 0 0 0 0 0 0 0 0 0 0 0 0 0 0 0 0 0 0 0 0 0 0 0 0 0 0 0 0 0 0 0 0
0 0 0 0 0 0 0 0 0 0 0 0 0 0 0 0 0 0 0 0 0 0 0 0 0 0 0 0 0 0 0 0 0 0 0 0 0 0 0 0 0 0 0
0 0 0 0 0 0 0 0 0 0 0 0 0 0 0 0 0 0 0 0 0 0 0 0 0 0 0 0 0 0 0 0 0 0 0 0 0 0 0 0 0 0 0
0 0 0 0 0 0 0 0 0 0 0 0 0 0 0 0 0 0 0 0 0 0 0 0 0 0 0 0 0 0 0 0 0 0 0 0 0 0 0 0 0 0 0
0 0 0 0 0 0 0 0 0 0 0 0 0 0 0 0 0 0 0 0 0 0 0 0 0 0 0 0 0 0 0 0 0 0 0 0 0 0 0 0 0 0 0
0 0 0 0 0 0 0 0 0 0 0 0 0 0 0 0 0 0 0 0 0 0 0 0 0 0 0 0 0 0 0 0 0 0 0 0 0 0 0 0 0 0 0
0 0 0 0 0 0 0 0 0 0 0 0 0 0 0 0 -0 0 0 0 0 0 0 0 0 0 0 0 0 0 0 0 0 0 0 0 0 0 0 0 0 0 0
0 0 0 0 0 0 0 0 0 0 0 0 0 0 0 0 0 0 0 0 0 0 0 0 0 0 0 0 0 0 0 0 0 0 0 0 0 0 0 0 0 0 0
0 0 0 0 0 0 0 0 0 0 0 0 0 0 0 0 0 0 0 0 0 0 0 0 0 0 0 0 0 0 0 0 0 0 0 0 0 0 0 0 0 0 0
0 0 0 0 0 0 0 0 0 0 0 0 0 0 0 0 0 0 0 0 0 0 0 0 0 0 0 0 0 0 0 0 0 0 0 0 0 0 0 0 0 0 0
0 0 0 0 0 0 0 0 0 0 0 0 0 0 0 0 0 0 0 0 0 0 0 0 0 0 0 0 0 0 0 0 0 0 0 0 0 0 0 0 0 0 0
0 0 0 0 0 0 0 0 0 0 0 0 0 0 0 0 0 0 0 0 0 0 0 0 0 0 0 0 0 0 0 0 0 0 0 0 0 0 0 0 0 0 0
0 0 0 0 0 0 0 0 0 0 0 0 0 0 0 0 0 0 0 0 0 0 0 0 0 0 0 0 0 0 0 0 0 0 0 0 0 0 0 0 0 0 0
0 0 0 0 0 0 0 0 0 0 0 0 0 0 0 0 0 0 0 0 0 0 0 0 0 0 0 0 0 0 0 0 0 0 0 0 0 0 0 0 0 0 0
0 0 0 0 0 0 0 0 0 0 0 0 0 0 0 0 0 0 0 0 0 0 0 0 0 0 0 0 0 0 0 0 0 0 0 0 0 0 0 0 0 0 0
0 0 0 0 0 0 0 0 0 0 0 0 0 0 0 0 0 0 0 0 0 0 0 0 0 0 0 0 0 0 0 0 0 0 0 0 0 0 0 0 0 0 0
0 0 0 0 0 0 0 0 0 0 0 0 0 0 0 0 0 0 0 0 0 0 0 0 0 0 0 0 0 0 0 0 0 0 0 0 0 0 0 0 0 0 0
0 0 0 0 0 0 0 0 0 0 0 0 0 0 0 0 0 0 0 0 0 0 0 0 0 0 0 0 0 0 0 0 0 0 0 0 0 0 0 0 0 0 0
0 0 0 0 0 0 0 0 0 0 0 0 0 0 0 0 0 0 0 0 0 0 0 0 0 0 0 0 0 0 0 0 0 0 0 0 0 0 0 0 0 0 0
0 0 0 0 0 0 0 0 0 0 0 0 0 0 0 0 0 0 0 0 0 0 0 0 0 0 0 0 0 0 0 0 0 0 0 0 0 0 0 0 0 0 0
Wind_Speed_500mb
19 18 17 20 18 15 9 5 6 5 5 5 4 9 11 10 11 11 10 11 12 12 12 9 10 14 18 27 27 26 37 30 21 37 28 24 15 12 14 12 13 16 17
18 17 15 18 18 13 10 7 6 5 6 8 5 6 8 8 8 8 9 9 6 6 11 9 6 9 13 18 23 32 38 29 22 28 36 32 22 19 16 13 16 19 17
17 18 18 18 14 12 10 7 7 6 6 7 10 11 8 8 4 4 6 6 5 3 4 6 6 7 9 14 19 25 30 27 23 25 38 35 30 25 22 21 19 19 17
14 19 18 18 11 10 10 9 9 8 8 10 14 15 12 10 6 3 3 4 4 4 3 4 3 5 8 11 16 22 28 27 26 26 35 37 33 28 21 18 19 18 17
11 19 18 17 13 14 13 9 11 12 8 12 15 17 14 10 9 7 4 3 6 7 6 6 6 8 8 11 12 15 22 25 26 27 32 38 36 33 29 24 21 22 17
6 15 18 17 16 15 17 20 19 18 15 17 16 18 16 12 12 10 7 5 6 8 6 7 8 8 7 8 9 11 13 11 22 31 28 34 33 29 27 24 24 25 21
8 14 17 19 18 13 20 28 26 29 30 31 25 23 19 16 15 14 12 10 8 6 6 7 8 8 8 6 7 10 12 14 13 16 25 26 26 24 24 26 25 23 19
16 10 17 22 20 18 22 20 27 36 45 46 39 30 29 20 17 18 16 15 13 11 10 10 8 8 10 11 9 9 11 13 16 19 21 19 20 20 19 17 21 23 20
21 14 14 19 17 15 15 17 19 23 39 50 43 38 39 28 20 23 21 19 17 16 16 11 11 10 10 11 10 10 13 16 18 20 21 22 20 21 20 23 26 25 24
20 17 15 15 16 10 9 6 7 12 19 29 24 41 38 37 30 26 26 22 20 19 18 17 16 15 13 12 11 10 11 12 14 17 19 20 19 20 21 22 22 23 25
22 17 16 17 19 18 9 6 8 13 10 22 22 22 20 29 31 31 31 30 24 21 19 18 19 19 17 15 15 14 12 13 16 17 17 17 19 18 14 14 20 26 28
20 17 20 21 21 17 16 16 14 13 8 13 23 10 13 30 27 38 36 34 29 29 23 17 21 24 24 23 22 22 19 17 21 24 24 22 21 16 9 7 10 17 24
19 19 22 19 17 19 20 22 22 20 17 10 9 16 14 13 8 33 40 37 37 38 30 25 22 26 30 30 31 32 30 28 31 35 31 26 21 19 17 15 13 14 13
17 16 11 13 20 25 29 32 33 30 30 36 35 28 23 23 27 26 33 39 43 45 42 39 38 34 35 34 38 40 40 39 40 38 38 32 31 33 31 26 22 24 25
14 5 1 5 12 18 19 15 15 15 21 29 39 40 44 49 49 41 40 47 46 49 50 49 54 51 49 47 45 45 43 42 41 38 37 42 43 41 40 35 30 27 30
17 17 14 8 4 8 12 11 12 15 20 22 22 34 44 45 43 44 45 46 48 46 59 60 60 60 57 54 52 49 48 45 42 40 35 34 36 37 37 41 41 35 33
25 21 18 13 9 10 13 13 9 12 18 23 28 26 29 36 38 45 42 47 43 58 64 64 64 63 62 58 56 54 53 48 45 43 42 42 42 43 45 48 45 42 38
20 16 11 7 10 17 17 20 22 22 24 22 20 28 31 30 36 38 39 41 49 55 69 65 65 65 64 63 60 56 56 53 54 49 45 44 43 44 46 50 50 47 44
2 4 10 13 17 19 24 23 23 24 27 30 32 30 29 28 27 28 33 39 43 49 63 66 64 68 68 60 61 58 58 59 58 59 55 48 47 45 46 45 50 46 47
12 16 22 27 26 26 28 29 26 27 31 34 33 30 28 34 32 28 28 29 35 38 42 55 65 67 73 56 57 57 61 61 63 68 65 59 57 54 52 50 51 52 51
21 24 27 28 30 33 34 34 28 31 32 36 35 27 29 38 40 37 34 33 34 34 34 36 43 49 50 54 61 61 60 59 66 75 73 69 69 68 66 60 58 57 52
25 25 25 26 28 33 37 38 40 39 40 37 36 26 24 30 36 37 36 35 37 33 33 37 40 46 53 55 55 58 57 62 65 78 82 76 71 66 64 68 63 64 59
35 36 31 27 27 29 30 33 39 40 39 38 32 30 28 30 30 31 28 28 29 31 32 32 30 33 38 45 51 55 56 63 67 72 83 79 66 53 56 67 65 62 63
35 30 29 32 34 35 32 31 28 25 27 26 26 28 31 31 31 36 37 34 39 36 33 37 35 36 36 39 39 42 48 53 57 55 61 64 64 67 65 72 68 67 74
22 17 16 19 23 21 24 22 20 21 21 18 21 24 25 28 30 30 30 32 34 33 38 38 40 40 41 40 46 45 43 42 47 50 52 59 64 69 75 76 79 75 73
24 18 15 13 14 12 10 9 9 9 10 11 15 18 23 26 28 32 31 29 28 26 25 30 39 44 27 22 26 35 48 53 55 51 48 53 67 70 70 73 75 77 79
Wind_Direction_500mb
259 234 225 225 228 222 213 213 250 245 226 221 244 237 251 258 275 276 247 238 241 245 241 229 230 232 217 213 213 210 210 207 220 184 187 178 176 183 155 145 137 128 119
255 228 218 212 218 221 215 221 215 207 242 272 269 236 244 265 287 249 243 246 249 245 232 231 234 223 213 205 205 209 213 219 221 198 185 183 186 179 172 164 155 139 128
242 220 213 209 215 203 217 247 237 231 237 253 270 280 258 269 303 303 277 259 226 214 213 205 221 217 211 203 199 202 211 216 218 218 194 193 192 192 178 175 169 160 146
230 216 216 207 211 219 222 238 240 241 260 271 280 280 275 273 277 298 257 222 191 166 169 148 142 165 182 190 195 201 215 218 220 211 200 197 200 192 190 194 178 166 157
231 215 207 208 216 218 232 237 249 244 263 285 274 273 265 269 278 274 252 193 155 148 174 150 122 116 153 176 185 213 218 217 209 198 197 198 202 202 198 197 185 176 177
242 198 193 204 228 237 238 234 234 238 247 268 268 259 259 266 260 263 248 215 173 152 176 165 155 133 121 141 154 155 154 183 197 188 201 202 209 208 200 195 194 197 187
195 196 204 216 222 251 277 268 268 244 240 249 242 248 246 255 261 247 251 235 213 193 186 171 156 153 141 131 152 167 165 165 169 198 204 204 209 210 208 211 204 200 200
205 214 220 228 233 274 294 285 282 260 255 266 240 234 232 235 257 242 244 237 230 219 202 189 178 176 174 166 173 173 172 177 175 177 183 200 202 204 202 209 207 199 199
200 212 230 233 248 271 284 284 289 284 278 273 244 233 234 224 240 241 242 242 235 233 223 219 211 193 200 188 187 191 187 182 184 186 190 192 198 197 196 196 204 212 218
201 205 217 223 239 213 174 118 24 338 309 260 262 259 258 223 223 231 241 240 241 242 237 235 224 212 206 209 202 213 215 204 205 204 200 199 200 202 205 209 212 221 219
201 208 222 226 206 193 214 303 326 349 297 266 279 264 239 238 237 229 231 241 244 245 244 241 234 232 223 220 214 211 221 232 215 201 197 182 171 165 173 203 224 225 226
203 209 207 192 197 219 247 275 282 290 321 230 253 248 209 255 252 238 233 233 243 245 246 244 237 236 232 225 220 220 227 223 214 204 200 196 192 192 205 219 213 220 226
195 189 189 205 227 243 246 255 263 264 263 238 248 216 195 185 249 253 238 233 235 240 243 243 243 240 233 230 228 226 229 232 225 219 220 223 224 223 233 226 219 214 224
190 186 199 244 264 269 265 264 269 270 265 260 250 249 239 245 251 243 246 245 233 237 233 233 240 239 237 238 235 232 235 237 236 237 236 233 234 233 234 227 222 216 216
218 180 224 284 268 273 267 274 275 274 280 274 269 270 263 261 266 269 256 250 248 245 238 235 235 235 236 239 239 236 235 236 235 237 241 235 237 234 222 224 223 225 220
100 87 84 67 350 288 290 305 304 289 284 289 285 270 270 273 268 270 262 255 253 253 236 232 235 240 243 245 241 239 235 233 232 233 234 230 224 221 227 224 222 223 226
78 76 73 65 31 347 336 326 349 347 344 340 324 314 295 289 288 276 273 267 262 246 235 234 236 241 247 249 245 243 239 236 232 231 233 226 226 231 232 229 228 227 225
75 72 61 24 3 360 341 323 324 335 332 333 326 316 311 305 288 289 276 271 260 249 236 238 239 241 243 246 244 241 239 234 233 232 228 226 229 234 234 230 227 231 226
33 312 296 301 309 319 327 323 327 319 325 309 298 301 309 302 297 297 292 282 274 261 245 241 246 246 244 243 250 247 242 235 233 230 234 232 233 234 237 238 234 232 226
286 288 283 281 284 287 295 313 320 320 312 317 307 309 313 313 306 298 291 286 282 277 268 255 257 260 258 245 243 246 247 240 231 231 234 237 238 238 242 242 236 234 235
294 290 287 290 292 282 279 283 298 300 307 310 315 311 306 301 303 297 291 289 288 278 271 271 269 273 277 262 263 251 245 239 236 234 236 241 245 246 243 243 242 239 241
295 294 298 299 292 285 282 280 281 284 289 296 306 311 303 306 314 304 297 282 289 279 277 281 282 278 275 273 269 272 264 248 242 237 238 240 249 250 244 240 242 239 238
284 281 281 283 289 290 293 287 282 281 284 286 290 298 302 303 307 311 308 294 287 269 281 288 289 295 289 277 273 271 260 254 255 249 246 248 259 233 247 241 241 241 243
286 283 288 289 284 279 285 287 287 288 290 286 283 292 305 310 311 308 306 306 284 268 264 268 274 290 287 283 280 278 274 267 266 264 252 252 249 232 243 241 241 243 245
354 333 299 298 308 297 271 281 285 290 287 288 290 299 308 319 323 317 315 320 317 298 271 271 276 287 297 298 287 281 274 275 268 261 262 256 240 247 240 239 239 245 256
20 14 352 347 346 328 311 311 309 307 314 320 328 329 330 330 329 329 329 331 321 312 302 304 311 304 294 299 299 284 270 264 270 271 266 258 249 238 238 244 244 248 252
Wind_Speed_850mb
19 18 17 20 18 15 9 5 6 5 5 5 4 9 11 10 11 11 10 11 12 12 12 9 10 14 18 27 27 26 37 30 21 37 28 24 15 12 14 12 13 16 17
18 17 15 18 18 13 10 7 6 5 6 8 5 6 8 8 8 8 9 9 6 6 11 9 6 9 13 18 23 32 38 29 22 28 36 32 22 19 16 13 16 19 17
17 18 18 18 14 12 10 7 7 6 6 7 10 11 8 8 4 4 6 6 5 3 4 6 6 7 9 14 19 25 30 27 23 25 38 35 30 25 22 21 19 19 17
14 19 18 18 11 10 10 9 9 8 8 10 14 15 12 10 6 3 3 4 4 4 3 4 3 5 8 11 16 22 28 27 26 26 35 37 33 28 21 18 19 18 17
11 19 18 17 13 14 13 9 11 12 8 12 15 17 14 10 9 7 4 3 6 7 6 6 6 8 8 11 12 15 22 25 26 27 32 38 36 33 29 24 21 22 17
6 15 18 17 16 15 17 20 19 18 15 17 16 18 16 12 12 10 7 5 6 8 6 7 8 8 7 8 9 11 13 11 22 31 28 34 33 29 27 24 24 25 21
8 14 17 19 18 13 20 28 26 29 30 31 25 23 19 16 15 14 12 10 8 6 6 7 8 8 8 6 7 10 12 14 13 16 25 26 26 24 24 26 25 23 19
16 10 17 22 20 18 22 20 27 36 45 46 39 30 29 20 17 18 16 15 13 11 10 10 8 8 10 11 9 9 11 13 16 19 21 19 20 20 19 17 21 23 20
21 14 14 19 17 15 15 17 19 23 39 50 43 38 39 28 20 23 21 19 17 16 16 11 11 10 10 11 10 10 13 16 18 20 21 22 20 21 20 23 26 25 24
20 17 15 15 16 10 9 6 7 12 19 29 24 41 38 37 30 26 26 22 20 19 18 17 16 15 13 12 11 10 11 12 14 17 19 20 19 20 21 22 22 23 25
22 17 16 17 19 18 9 6 8 13 10 22 22 22 20 29 31 31 31 30 24 21 19 18 19 19 17 15 15 14 12 13 16 17 17 17 19 18 14 14 20 26 28
20 17 20 21 21 17 16 16 14 13 8 13 23 10 13 30 27 38 36 34 29 29 23 17 21 24 24 23 22 22 19 17 21 24 24 22 21 16 9 7 10 17 24
19 19 22 19 17 19 20 22 22 20 17 10 9 16 14 13 8 33 40 37 37 38 30 25 22 26 30 30 31 32 30 28 31 35 31 26 21 19 17 15 13 14 13
17 16 11 13 20 25 29 32 33 30 30 36 35 28 23 23 27 26 33 39 43 45 42 39 38 34 35 34 38 40 40 39 40 38 38 32 31 33 31 26 22 24 25
14 5 1 5 12 18 19 15 15 15 21 29 39 40 44 49 49 41 40 47 46 49 50 49 54 51 49 47 45 45 43 42 41 38 37 42 43 41 40 35 30 27 30
17 17 14 8 4 8 12 11 12 15 20 22 22 34 44 45 43 44 45 46 48 46 59 60 60 60 57 54 52 49 48 45 42 40 35 34 36 37 37 41 41 35 33
25 21 18 13 9 10 13 13 9 12 18 23 28 26 29 36 38 45 42 47 43 58 64 64 64 63 62 58 56 54 53 48 45 43 42 42 42 43 45 48 45 42 38
20 16 11 7 10 17 17 20 22 22 24 22 20 28 31 30 36 38 39 41 49 55 69 65 65 65 64 63 60 56 56 53 54 49 45 44 43 44 46 50 50 47 44
2 4 10 13 17 19 24 23 23 24 27 30 32 30 29 28 27 28 33 39 43 49 63 66 64 68 68 60 61 58 58 59 58 59 55 48 47 45 46 45 50 46 47
12 16 22 27 26 26 28 29 26 27 31 34 33 30 28 34 32 28 28 29 35 38 42 55 65 67 73 56 57 57 61 61 63 68 65 59 57 54 52 50 51 52 51
21 24 27 28 30 33 34 34 28 31 32 36 35 27 29 38 40 37 34 33 34 34 34 36 43 49 50 54 61 61 60 59 66 75 73 69 69 68 66 60 58 57 52
25 25 25 26 28 33 37 38 40 39 40 37 36 26 24 30 36 37 36 35 37 33 33 37 40 46 53 55 55 58 57 62 65 78 82 76 71 66 64 68 63 64 59
35 36 31 27 27 29 30 33 39 40 39 38 32 30 28 30 30 31 28 28 29 31 32 32 30 33 38 45 51 55 56 63 67 72 83 79 66 53 56 67 65 62 63
35 30 29 32 34 35 32 31 28 25 27 26 26 28 31 31 31 36 37 34 39 36 33 37 35 36 36 39 39 42 48 53 57 55 61 64 64 67 65 72 68 67 74
22 17 16 19 23 21 24 22 20 21 21 18 21 24 25 28 30 30 30 32 34 33 38 38 40 40 41 40 46 45 43 42 47 50 52 59 64 69 75 76 79 75 73
24 18 15 13 14 12 10 9 9 9 10 11 15 18 23 26 28 32 31 29 28 26 25 30 39 44 27 22 26 35 48 53 55 51 48 53 67 70 70 73 75 77 79
Wind_Direction_850mb
259 234 225 225 228 222 213 213 250 245 226 221 244 237 251 258 275 276 247 238 241 245 241 229 230 232 217 213 213 210 210 207 220 184 187 178 176 183 155 145 137 128 119
255 228 218 212 218 221 215 221 215 207 242 272 269 236 244 265 287 249 243 246 249 245 232 231 234 223 213 205 205 209 213 219 221 198 185 183 186 179 172 164 155 139 128
242 220 213 209 215 203 217 247 237 231 237 253 270 280 258 269 303 303 277 259 226 214 213 205 221 217 211 203 199 202 211 216 218 218 194 193 192 192 178 175 169 160 146
230 216 216 207 211 219 222 238 240 241 260 271 280 280 275 273 277 298 257 222 191 166 169 148 142 165 182 190 195 201 215 218 220 211 200 197 200 192 190 194 178 166 157
231 215 207 208 216 218 232 237 249 244 263 285 274 273 265 269 278 274 252 193 155 148 174 150 122 116 153 176 185 213 218 217 209 198 197 198 202 202 198 197 185 176 177
242 198 193 204 228 237 238 234 234 238 247 268 268 259 259 266 260 263 248 215 173 152 176 165 155 133 121 141 154 155 154 183 197 188 201 202 209 208 200 195 194 197 187
195 196 204 216 222 251 277 268 268 244 240 249 242 248 246 255 261 247 251 235 213 193 186 171 156 153 141 131 152 167 165 165 169 198 204 204 209 210 208 211 204 200 200
205 214 220 228 233 274 294 285 282 260 255 266 240 234 232 235 257 242 244 237 230 219 202 189 178 176 174 166 173 173 172 177 175 177 183 200 202 204 202 209 207 199 199
200 212 230 233 248 271 284 284 289 284 278 273 244 233 234 224 240 241 242 242 235 233 223 219 211 193 200 188 187 191 187 182 184 186 190 192 198 197 196 196 204 212 218
201 205 217 223 239 213 174 118 24 338 309 260 262 259 258 223 223 231 241 240 241 242 237 235 224 212 206 209 202 213 215 204 205 204 200 199 200 202 205 209 212 221 219
201 208 222 226 206 193 214 303 326 349 297 266 279 264 239 238 237 229 231 241 244 245 244 241 234 232 223 220 214 211 221 232 215 201 197 182 171 165 173 203 224 225 226
203 209 207 192 197 219 247 275 282 290 321 230 253 248 209 255 252 238 233 233 243 245 246 244 237 236 232 225 220 220 227 223 214 204 200 196 192 192 205 219 213 220 226
195 189 189 205 227 243 246 255 263 264 263 238 248 216 195 185 249 253 238 233 235 240 243 243 243 240 233 230 228 226 229 232 225 219 220 223 224 223 233 226 219 214 224
190 186 199 244 264 269 265 264 269 270 265 260 250 249 239 245 251 243 246 245 233 237 233 233 240 239 237 238 235 232 235 237 236 237 236 233 234 233 234 227 222 216 216
218 180 224 284 268 273 267 274 275 274 280 274 269 270 263 261 266 269 256 250 248 245 238 235 235 235 236 239 239 236 235 236 235 237 241 235 237 234 222 224 223 225 220
100 87 84 67 350 288 290 305 304 289 284 289 285 270 270 273 268 270 262 255 253 253 236 232 235 240 243 245 241 239 235 233 232 233 234 230 224 221 227 224 222 223 226
78 76 73 65 31 347 336 326 349 347 344 340 324 314 295 289 288 276 273 267 262 246 235 234 236 241 247 249 245 243 239 236 232 231 233 226 226 231 232 229 228 227 225
75 72 61 24 3 360 341 323 324 335 332 333 326 316 311 305 288 289 276 271 260 249 236 238 239 241 243 246 244 241 239 234 233 232 228 226 229 234 234 230 227 231 226
33 312 296 301 309 319 327 323 327 319 325 309 298 301 309 302 297 297 292 282 274 261 245 241 246 246 244 243 250 247 242 235 233 230 234 232 233 234 237 238 234 232 226
286 288 283 281 284 287 295 313 320 320 312 317 307 309 313 313 306 298 291 286 282 277 268 255 257 260 258 245 243 246 247 240 231 231 234 237 238 238 242 242 236 234 235
294 290 287 290 292 282 279 283 298 300 307 310 315 311 306 301 303 297 291 289 288 278 271 271 269 273 277 262 263 251 245 239 236 234 236 241 245 246 243 243 242 239 241
295 294 298 299 292 285 282 280 281 284 289 296 306 311 303 306 314 304 297 282 289 279 277 281 282 278 275 273 269 272 264 248 242 237 238 240 249 250 244 240 242 239 238
284 281 281 283 289 290 293 287 282 281 284 286 290 298 302 303 307 311 308 294 287 269 281 288 289 295 289 277 273 271 260 254 255 249 246 248 259 233 247 241 241 241 243
286 283 288 289 284 279 285 287 287 288 290 286 283 292 305 310 311 308 306 306 284 268 264 268 274 290 287 283 280 278 274 267 266 264 252 252 249 232 243 241 241 243 245
354 333 299 298 308 297 271 281 285 290 287 288 290 299 308 319 323 317 315 320 317 298 271 271 276 287 297 298 287 281 274 275 268 261 262 256 240 247 240 239 239 245 256
20 14 352 347 346 328 311 311 309 307 314 320 328 329 330 330 329 329 329 331 321 312 302 304 311 304 294 299 299 284 270 264 270 271 266 258 249 238 238 244 244 248 252